AXM6076 WBGR-WBKK

Flight info

Callsign AXM6076
Flight time 0h 30m
Altitude 21000
Route GODOM1A GODOM DCT BRU DCT DULIM DULIM2B
Aircraft A20N/M-SDE2E3FGHIRWXY/LB1

Departure

Time 2026-04-18 08:38
Airport Miri Airport (WBGR)

Arrival

Time 2026-04-18 09:08
Airport Kota Kinabalu International Airport (WBKK)
Time Latitude Longitude Altitude Speed Heading
2026-04-18 08:26 4.32515 113.98438 62 ft 0 kts 295°
2026-04-18 08:29 4.32513 113.98443 62 ft 2 kts 295°
2026-04-18 08:30 4.32507 113.98455 59 ft 2 kts 295°
2026-04-18 08:30 4.32501 113.98468 60 ft 2 kts 295°
2026-04-18 08:30 4.32496 113.98479 62 ft 2 kts 295°
2026-04-18 08:30 4.32490 113.98493 53 ft 2 kts 298°
2026-04-18 08:31 4.32481 113.98505 58 ft 2 kts 317°
2026-04-18 08:31 4.32469 113.98514 56 ft 2 kts 336°
2026-04-18 08:31 4.32455 113.98519 58 ft 2 kts 354°
2026-04-18 08:31 4.32442 113.98520 57 ft 2 kts
2026-04-18 08:32 4.32435 113.98519 60 ft 0 kts
2026-04-18 08:33 4.32447 113.98521 58 ft 4 kts 12°
2026-04-18 08:33 4.32466 113.98550 62 ft 6 kts 82°
2026-04-18 08:34 4.32439 113.98590 63 ft 8 kts 161°
2026-04-18 08:34 4.32380 113.98575 64 ft 11 kts 206°
2026-04-18 08:34 4.32295 113.98534 63 ft 15 kts 205°
2026-04-18 08:34 4.32198 113.98491 63 ft 16 kts 203°
2026-04-18 08:35 4.32082 113.98438 59 ft 20 kts 203°
2026-04-18 08:35 4.31948 113.98375 62 ft 22 kts 205°
2026-04-18 08:35 4.31799 113.98305 64 ft 26 kts 204°
2026-04-18 08:35 4.31625 113.98227 68 ft 29 kts 204°
2026-04-18 08:36 4.31456 113.98147 68 ft 23 kts 206°
2026-04-18 08:36 4.31311 113.98077 61 ft 19 kts 204°
2026-04-18 08:36 4.31213 113.98079 66 ft 12 kts 130°
2026-04-18 08:36 4.31204 113.98095 62 ft 0 kts 117°
2026-04-18 08:37 4.31203 113.98097 63 ft 2 kts 117°
2026-04-18 08:37 4.31186 113.98134 66 ft 10 kts 114°
2026-04-18 08:37 4.31184 113.98213 61 ft 12 kts 51°
2026-04-18 08:37 4.31233 113.98238 65 ft 8 kts 24°
2026-04-18 08:38 4.31283 113.98262 68 ft 32 kts 25°
2026-04-18 08:38 4.31746 113.98479 67 ft 109 kts 24°
2026-04-18 08:38 4.32524 113.98846 304 ft 141 kts 26°
2026-04-18 08:38 4.33373 113.99345 869 ft 150 kts 25°
2026-04-18 08:39 4.34307 113.99801 1616 ft 147 kts 19°
2026-04-18 08:39 4.35278 114.00204 2286 ft 156 kts 20°
2026-04-18 08:39 4.36229 114.00598 2701 ft 176 kts 24°
2026-04-18 08:39 4.37179 114.01359 3082 ft 205 kts 53°
2026-04-18 08:40 4.37797 114.02735 3645 ft 229 kts 70°
2026-04-18 08:40 4.38338 114.04317 4273 ft 251 kts 71°
2026-04-18 08:40 4.38913 114.06047 4928 ft 270 kts 72°
2026-04-18 08:40 4.39521 114.07856 5855 ft 277 kts 72°
2026-04-18 08:41 4.39942 114.09097 6497 ft 280 kts 72°
2026-04-18 08:41 4.40781 114.11551 7724 ft 286 kts 71°
2026-04-18 08:41 4.41375 114.13279 8566 ft 289 kts 70°
2026-04-18 08:41 4.42036 114.15196 9487 ft 294 kts 70°
2026-04-18 08:42 4.42719 114.17146 10250 ft 302 kts 68°
2026-04-18 08:42 4.43695 114.19102 10583 ft 325 kts 57°
2026-04-18 08:42 4.44959 114.21076 10896 ft 347 kts 56°
2026-04-18 08:42 4.46276 114.23138 11596 ft 353 kts 56°
2026-04-18 08:43 4.47596 114.25221 12397 ft 357 kts 56°
2026-04-18 08:43 4.48482 114.26622 12901 ft 361 kts 56°
2026-04-18 08:43 4.49832 114.28764 13650 ft 366 kts 56°
2026-04-18 08:43 4.51664 114.31671 14569 ft 372 kts 56°
2026-04-18 08:44 4.52584 114.33130 15006 ft 375 kts 56°
2026-04-18 08:44 4.53984 114.35352 15680 ft 379 kts 56°
2026-04-18 08:44 4.55368 114.37548 16324 ft 383 kts 56°
2026-04-18 08:44 4.56795 114.39814 16969 ft 387 kts 56°
2026-04-18 08:45 4.58715 114.42864 17801 ft 393 kts 56°
2026-04-18 08:45 4.60182 114.45191 18395 ft 396 kts 56°
2026-04-18 08:45 4.61661 114.47538 18933 ft 400 kts 56°
2026-04-18 08:45 4.62667 114.49136 19292 ft 403 kts 56°
2026-04-18 08:46 4.64169 114.51522 19835 ft 406 kts 56°
2026-04-18 08:46 4.65683 114.53926 20381 ft 410 kts 56°
2026-04-18 08:46 4.67211 114.56352 20720 ft 413 kts 56°
2026-04-18 08:46 4.68745 114.58789 20828 ft 414 kts 56°
2026-04-18 08:47 4.70279 114.61226 20839 ft 413 kts 56°
2026-04-18 08:47 4.71815 114.63667 20842 ft 413 kts 56°
2026-04-18 08:47 4.73349 114.66103 20846 ft 414 kts 56°
2026-04-18 08:47 4.74882 114.68539 20849 ft 413 kts 56°
2026-04-18 08:48 4.76396 114.70943 20850 ft 413 kts 56°
2026-04-18 08:48 4.77928 114.73378 20850 ft 413 kts 56°
2026-04-18 08:48 4.79460 114.75815 20851 ft 413 kts 56°
2026-04-18 08:48 4.80991 114.78248 20853 ft 413 kts 56°
2026-04-18 08:49 4.82523 114.80683 20856 ft 413 kts 56°
2026-04-18 08:49 4.84054 114.83117 20857 ft 413 kts 56°
2026-04-18 08:49 4.85587 114.85554 20856 ft 413 kts 56°
2026-04-18 08:49 4.87136 114.87974 20855 ft 412 kts 53°
2026-04-18 08:50 4.88921 114.90212 20859 ft 411 kts 46°
2026-04-18 08:50 4.90830 114.92348 20857 ft 411 kts 46°
2026-04-18 08:50 4.92726 114.94486 20857 ft 410 kts 46°
2026-04-18 08:50 4.94483 114.96472 20855 ft 411 kts 46°
2026-04-18 08:51 4.96312 114.98542 20828 ft 410 kts 46°
2026-04-18 08:51 4.98208 115.00687 20613 ft 410 kts 46°
2026-04-18 08:51 5.00091 115.02819 20374 ft 407 kts 46°
2026-04-18 08:51 5.01968 115.04942 20139 ft 405 kts 46°
2026-04-18 08:52 5.03834 115.07052 19897 ft 404 kts 46°
2026-04-18 08:52 5.05698 115.09160 19674 ft 403 kts 46°
2026-04-18 08:52 5.07556 115.11262 19447 ft 402 kts 47°
2026-04-18 08:52 5.09407 115.13356 19201 ft 400 kts 47°
2026-04-18 08:53 5.11251 115.15442 18979 ft 399 kts 47°
2026-04-18 08:53 5.13088 115.17520 18749 ft 398 kts 47°
2026-04-18 08:53 5.14919 115.19592 18523 ft 397 kts 47°
2026-04-18 08:53 5.16747 115.21660 18304 ft 396 kts 47°
2026-04-18 08:54 5.18572 115.23724 18081 ft 394 kts 47°
2026-04-18 08:54 5.20387 115.25778 17827 ft 393 kts 47°
2026-04-18 08:54 5.22196 115.27827 17568 ft 391 kts 47°
2026-04-18 08:54 5.23994 115.29863 17319 ft 389 kts 47°
2026-04-18 08:55 5.25785 115.31892 17066 ft 388 kts 47°
2026-04-18 08:55 5.27569 115.33913 16799 ft 386 kts 47°
2026-04-18 08:55 5.29357 115.35937 16233 ft 388 kts 47°
2026-04-18 08:55 5.31030 115.37832 15702 ft 387 kts 47°
2026-04-18 08:56 5.32805 115.39842 15095 ft 385 kts 47°
2026-04-18 08:56 5.34573 115.41845 14550 ft 381 kts 47°
2026-04-18 08:56 5.36326 115.43832 13991 ft 378 kts 47°
2026-04-18 08:56 5.38066 115.45805 13397 ft 376 kts 47°
2026-04-18 08:57 5.41473 115.49662 12289 ft 367 kts 47°
2026-04-18 08:57 5.43158 115.51570 11738 ft 364 kts 48°
2026-04-18 08:57 5.44693 115.53570 11196 ft 361 kts 56°
2026-04-18 08:58 5.45910 115.55762 10626 ft 359 kts 65°
2026-04-18 08:58 5.46863 115.58040 10375 ft 347 kts 67°
2026-04-18 08:58 5.47782 115.60220 10231 ft 332 kts 67°
2026-04-18 08:58 5.48670 115.62307 10118 ft 318 kts 67°
2026-04-18 08:59 5.49522 115.64303 9987 ft 306 kts 67°
2026-04-18 08:59 5.50351 115.66249 9650 ft 301 kts 67°
2026-04-18 08:59 5.51171 115.68176 9237 ft 299 kts 67°
2026-04-18 08:59 5.51982 115.70083 8854 ft 296 kts 67°
2026-04-18 09:00 5.52786 115.71976 8472 ft 294 kts 67°
2026-04-18 09:00 5.53584 115.73857 8085 ft 292 kts 67°
2026-04-18 09:00 5.54387 115.75721 7700 ft 290 kts 65°
2026-04-18 09:00 5.55395 115.77461 7331 ft 287 kts 58°
2026-04-18 09:01 5.56460 115.79148 6953 ft 286 kts 58°
2026-04-18 09:01 5.57515 115.80834 6578 ft 284 kts 59°
2026-04-18 09:01 5.58560 115.82510 6201 ft 282 kts 59°
2026-04-18 09:01 5.59586 115.84158 5998 ft 273 kts 59°
2026-04-18 09:02 5.60591 115.85770 5851 ft 275 kts 59°
2026-04-18 09:02 5.61610 115.87406 5774 ft 276 kts 59°
2026-04-18 09:02 5.62621 115.89029 5702 ft 270 kts 58°
2026-04-18 09:02 5.63607 115.90609 5519 ft 264 kts 59°
2026-04-18 09:03 5.64645 115.92090 5389 ft 256 kts 47°
2026-04-18 09:03 5.66001 115.93190 5194 ft 249 kts 32°
2026-04-18 09:03 5.67421 115.93938 4930 ft 246 kts 25°
2026-04-18 09:03 5.68981 115.94606 4637 ft 242 kts 23°
2026-04-18 09:04 5.70523 115.95255 4332 ft 239 kts 24°
2026-04-18 09:04 5.72053 115.95907 4020 ft 239 kts 24°
2026-04-18 09:04 5.73577 115.96557 3706 ft 237 kts 24°
2026-04-18 09:04 5.75083 115.97195 3411 ft 234 kts 23°
2026-04-18 09:05 5.76572 115.97826 3120 ft 230 kts 23°
2026-04-18 09:05 5.78046 115.98453 2841 ft 230 kts 23°
2026-04-18 09:05 5.79528 115.99083 2529 ft 232 kts 22°
2026-04-18 09:05 5.81004 115.99710 2229 ft 228 kts 22°
2026-04-18 09:06 5.82452 116.00325 1951 ft 224 kts 22°
2026-04-18 09:06 5.83878 116.00931 1677 ft 221 kts 22°
2026-04-18 09:06 5.85259 116.01517 1414 ft 214 kts 22°
2026-04-18 09:06 5.86590 116.02083 1158 ft 194 kts 22°
2026-04-18 09:07 5.87746 116.02575 946 ft 167 kts 22°
2026-04-18 09:07 5.88735 116.02996 715 ft 147 kts 20°
2026-04-18 09:07 5.89613 116.03369 527 ft 129 kts 20°
2026-04-18 09:07 5.90407 116.03705 350 ft 118 kts 21°
2026-04-18 09:08 5.91186 116.04053 196 ft 126 kts 21°
2026-04-18 09:08 5.92000 116.04390 46 ft 126 kts 21°
2026-04-18 09:08 5.92714 116.04690 28 ft 86 kts 22°
2026-04-18 09:08 5.93084 116.04846 28 ft 29 kts 23°
2026-04-18 09:09 5.93130 116.04866 28 ft 0 kts 24°
2026-04-18 09:09 5.93190 116.04892 28 ft 20 kts 24°
2026-04-18 09:09 5.93330 116.04951 28 ft 23 kts 22°
2026-04-18 09:09 5.93484 116.05016 28 ft 24 kts 22°
2026-04-18 09:10 5.93553 116.05097 28 ft 15 kts 131°
2026-04-18 09:10 5.93466 116.05132 28 ft 16 kts 159°
2026-04-18 09:10 5.93360 116.05149 28 ft 15 kts 198°
2026-04-18 09:10 5.93250 116.05101 28 ft 19 kts 204°
2026-04-18 09:11 5.93119 116.05049 28 ft 21 kts 201°
2026-04-18 09:11 5.92992 116.04994 28 ft 21 kts 202°
2026-04-18 09:11 5.92867 116.04976 28 ft 18 kts 143°
2026-04-18 09:11 5.92789 116.05035 28 ft 15 kts 184°
2026-04-18 09:12 5.92709 116.05004 28 ft 9 kts 193°
2026-04-18 09:12 5.92689 116.05017 28 ft 2 kts 118°
2026-04-18 09:12 5.92680 116.05034 28 ft 3 kts 114°
2026-04-18 09:12 5.92673 116.05051 28 ft 2 kts 112°
2026-04-18 09:13 5.92670 116.05059 28 ft 0 kts 111°